Flag for Norway Weather past 2 weeks in Hammerfest, Norway

Now
43 °F

Clear.


Feels Like: 43 °F
Forecast: 42 / 50 °F
Wind: 1 mph from North

Location: Hammerfest

Current Time: Sep 16, 2014 at 9:43:25 PM

Latest Report: Sep 16, 2014 at 8:50 PM


Visibility: 10 mi

Pressure: 30.27 "Hg

Humidity: 71%

Dew point: 34 °F

Location of HammerfestLocation

Historic Weather in Hammerfest — Graph

°F

Hammerfest temperature yesterday

Maximum temperature yesterday: 50 °F (at 5:50 AM)
Minimum temperature yesterday: 46 °F (at 12:50 AM)
Average temperature yesterday: 49 °F

Past Weeks' High & Low Weather Summary

 TemperatureHumidityPressure
High55 °F (Sep 2, 10:50 AM)100% (Sep 2, 7:50 AM)30.33 "Hg (Sep 2, 7:50 AM)
Low43 °F (Sep 8, 1:50 AM)54% (Sep 15, 8:50 AM)29.56 "Hg (Sep 11, 8:50 AM)
Average49 °F82%29.95 "Hg
* Reported Sep 1 7:50 PM — Sep 16 7:50 PM, Hammerfest, Weather by CustomWeather, © 2014

Note: Actual official high and low records may vary slightly from our data, if they occured in-between our weather recording intervals... More about our weather records

Advertising

Hammerfest weather history for previous 24 hours

 ConditionsComfort  
Time TempWeatherWind HumidityBarometerVisibility
7:50 PM
Sep 16
45 °FSunny.1 mph76%30.27 "Hg10 mi
6:50 PM46 °FSunny.2 mph71%30.27 "Hg10 mi
5:50 PM50 °FSunny.2 mph67%30.27 "Hg10 mi
4:50 PM52 °FSunny.5 mph62%30.30 "Hg10 mi
3:50 PM52 °FSunny.6 mph62%30.30 "Hg10 mi
2:50 PM52 °FSunny.7 mph67%30.30 "Hg10 mi
1:50 PM52 °FSunny.7 mph62%30.33 "Hg10 mi
12:50 PM52 °FSunny.8 mph62%30.33 "Hg10 mi
11:50 AM50 °FSunny.9 mph67%30.33 "Hg10 mi
10:50 AM50 °FPassing clouds.9 mph71%30.33 "HgN/A
9:50 AM48 °FScattered clouds.8 mph76%30.33 "HgN/A
8:50 AM46 °FPassing clouds.6 mph82%30.33 "HgN/A
7:50 AM45 °FScattered clouds.7 mph87%30.33 "HgN/A
6:50 AM46 °FPartly sunny.7 mph82%30.33 "HgN/A
5:50 AM45 °FClear.6 mph87%30.33 "Hg10 mi
4:50 AM46 °FClear.13 mph82%30.33 "Hg10 mi
3:50 AM46 °FPassing clouds.17 mph82%30.33 "HgN/A
2:50 AM46 °FPassing clouds.15 mph87%30.33 "HgN/A
1:50 AM46 °FPassing clouds.18 mph87%30.33 "HgN/A
12:50 AM48 °FPartly cloudy.18 mph82%30.33 "HgN/A
11:50 PM
Sep 15
48 °FPassing clouds.16 mph82%30.33 "HgN/A
10:50 PM48 °FPartly cloudy.21 mph82%30.30 "HgN/A
9:50 PM48 °FPassing clouds.17 mph82%30.30 "HgN/A
Weather by CustomWeather, © 2014

See weather overviewHow to use our weather pages